Prescott, AZ

6:51 PM MST on October 22, 2017 (GMT -0700)
Love

Weather History for KPRC - July, 2013

Change the Weather History Date:

Tuesday, July 30, 2013

  Actual Average Record
Temperature  
Mean Temperature 76 °F 75 °F  
Max Temperature 90 °F 88 °F 99 °F (1978)
Min Temperature 62 °F 62 °F 56 °F (1975)
Degree Days  
Heating Degree Days 0    
Month to date heating degree days 0  
Since 1 July heating degree days 0  
Cooling Degree Days 11    
Month to date cooling degree days 360  
Year to date cooling degree days 719  
Growing Degree Days 26 (Base 50)    
Moisture  
Dew Point 48 °F    
Average Humidity 37    
Maximum Humidity 56    
Minimum Humidity 22    
Precipitation  
Precipitation 0.00 in 0.09 in 0.81 in (1976)
Month to date precipitation 3.31 2.02  
Year to date precipitation 5.83 6.95  
Sea Level Pressure  
Sea Level Pressure 30.03 in    
Wind  
Wind Speed 6 mph (SSW)    
Max Wind Speed 14 mph    
Max Gust Speed 30 mph    
Visibility 10 miles    
Events      
T = Trace of Precipitation, MM = Missing Value Source: NWS Daily Summary

Daily Weather History Graph

Daily Weather History Graph

Search for Another Location

Airport or City:

Trip Planner

Search our weather history database for the weather conditions in past years. The results will help you decide how hot, cold, wet, or windy it might be!

Date:

Astronomy

Jul. 30, 2013 Rise Set
Actual Time 5:38 AM MST 7:33 PM MST
Civil Twilight 5:10 AM MST 8:00 PM MST
Nautical Twilight 4:37 AM MST 8:34 PM MST
Astronomical Twilight 4:01 AM MST 9:10 PM MST
Moon No Moon Rise 1:57 PM MST (7/30)
Length of Visible Light 14h 50m
Length of Day
13h 54m
Last Quarter, 40% of the Moon is Illuminated
Jul 30
Last Quarter
Aug 6
New
Aug 14
First Quarter
Aug 20
Full
Aug 28
Last Quarter

Hourly Weather History & Observations

Time (MST) Temp. Dew Point Humidity Pressure Visibility Wind Dir Wind Speed Gust Speed Precip Events Conditions
12:53 AM 69.1 °F 46.9 °F 45% 30.00 in 10.0 mi South 3.5 mph - N/A   Clear
1:53 AM 66.0 °F 48.0 °F 52% 30.01 in 10.0 mi SSW 5.8 mph - N/A   Clear
2:53 AM 66.9 °F 48.0 °F 51% 30.01 in 10.0 mi SSE 6.9 mph - N/A   Clear
3:53 AM 64.0 °F 48.9 °F 58% 30.02 in 10.0 mi South 6.9 mph - N/A   Clear
4:53 AM 64.0 °F 48.0 °F 56% 30.03 in 10.0 mi South 8.1 mph - N/A   Clear
5:53 AM 63.0 °F 46.9 °F 56% 30.05 in 10.0 mi South 6.9 mph - N/A   Clear
6:53 AM 68.0 °F 48.9 °F 50% 30.07 in 10.0 mi South 5.8 mph - N/A   Clear
7:53 AM 73.9 °F 50.0 °F 43% 30.07 in 10.0 mi South 3.5 mph - N/A   Clear
8:53 AM 80.1 °F 48.0 °F 32% 30.07 in 10.0 mi Calm Calm - N/A   Clear
9:53 AM 82.0 °F 50.0 °F 33% 30.08 in 10.0 mi SSW 10.4 mph - N/A   Clear
10:53 AM 84.0 °F 48.0 °F 28% 30.08 in 10.0 mi South 8.1 mph - N/A   Partly Cloudy
11:53 AM 84.9 °F 46.9 °F 27% 30.07 in 10.0 mi WSW 8.1 mph 16.1 mph N/A   Clear
12:53 PM 86.0 °F 48.9 °F 28% 30.05 in 10.0 mi SW 8.1 mph - N/A   Scattered Clouds
1:53 PM 87.1 °F 46.0 °F 24% 30.04 in 10.0 mi Variable 5.8 mph - N/A   Scattered Clouds
2:53 PM 88.0 °F 48.0 °F 25% 30.01 in 10.0 mi Variable 6.9 mph - N/A   Scattered Clouds
3:53 PM 89.1 °F 46.9 °F 23% 30.01 in 10.0 mi Variable 4.6 mph - N/A   Scattered Clouds
4:53 PM 87.1 °F 48.9 °F 27% 30.00 in 10.0 mi ESE 8.1 mph - N/A   Scattered Clouds
5:53 PM 88.0 °F 45.0 °F 22% 29.99 in 10.0 mi WSW 6.9 mph - N/A   Scattered Clouds
6:53 PM 84.9 °F 45.0 °F 25% 29.99 in 10.0 mi WSW 9.2 mph - N/A   Partly Cloudy
7:53 PM 81.0 °F 46.0 °F 29% 29.99 in 10.0 mi SW 6.9 mph - N/A   Partly Cloudy
8:53 PM 77.0 °F 46.9 °F 34% 30.01 in 10.0 mi SSW 5.8 mph - N/A   Clear
9:53 PM 73.9 °F 48.0 °F 40% 30.03 in 10.0 mi SW 4.6 mph - N/A   Clear
10:53 PM 73.0 °F 46.9 °F 39% 30.02 in 10.0 mi South 8.1 mph - N/A   Clear